{"data":{"norad_id":58066,"intl_designator":"2023-158R","name":"STARLINK-30571","alt_names":[],"object_type":"PAYLOAD","status":"ACTIVE","operator":null,"country":"US","launch_date":"2023-10-13","launch_site_code":"AFETR","launch_vehicle":null,"mission":null,"orbit_class":"UNKNOWN","rcs_meters":null,"size_class":null,"mass_kg":null,"dimensions":null,"purposes":["comms"],"wikipedia_slug":null,"has_3d_model":false,"image_url":null,"decayed_at":null,"tle_current":{"epoch":"2026-09-20T07:39:54.061344Z","epoch_age_seconds":153303,"freshness":"FRESH","line1":"1 58066U 23158R   26263.31937571 -.00000311  00000+0 -17817-5 0  9994","line2":"2 58066  43.0032   8.0889 0001692 297.7986  62.2694 15.27588344163330","mean_motion":15.27588344,"eccentricity":0.0001692,"inclination_deg":43.0032,"raan_deg":8.0889,"arg_perigee_deg":297.7986,"mean_anomaly_deg":62.2694,"bstar":-1.7817e-6,"rev_number":16333,"period_min":94.266233809388,"perigee_km":481.86320275563,"apogee_km":484.18501967566,"semimajor_km":6861.1611112156,"source":"CELESTRAK","updated_at":"2026-09-21T09:00:33.780059Z"}}}